Location: 22
(39.7117°N, 89.5929°W)
Time: 18:12:02
(UTC-05:00)

Gurwin Techsat 1B - Pass Details

Date: 09 April 2023
Orbit: 811 x 813 km, 98.9° (Epoch: 06 June)

Event Time Altitude Azimuth Distance (km) Brightness Sun altitude
Rises 04:02:48 0° 12° (NNE) 3,346 12.5 -26.7°
Reaches altitude 10° 04:05:09 10° 11° (N) 2,410 11.7 -26.3°
Maximum altitude 04:10:28 79° 286° (WNW) 833 8.5 -25.5°
Enters shadow 04:10:53 73° 237° (WSW) 851 8.4 -25.4°
